Weather History for Long Beach, CA

Change the Weather History Date:

Saturday, December 8, 2012

  Actual Average Record
Temperature  
Mean Temperature 59 °F 57 °F  
Max Temperature 66 °F 67 °F 85 °F (1975)
Min Temperature 51 °F 46 °F 31 °F (1978)
Degree Days  
Heating Degree Days 6 8  
Month to date heating degree days 28 63  
Since 1 July heating degree days 105 212  
Cooling Degree Days 0 0  
Month to date cooling degree days 0 0  
Year to date cooling degree days 1383 1125  
Growing Degree Days 10 (Base 50)    
Moisture  
Dew Point 53 °F    
Average Humidity 84    
Maximum Humidity 100    
Minimum Humidity 67    
Precipitation  
Precipitation 0.00 in 0.06 in 0.29 in (1984)
Month to date precipitation 0.66 0.41  
Year to date precipitation 6.47 10.72  
Since 1 July precipitation 2.06 2.28  
Sea Level Pressure  
Sea Level Pressure 29.95 in    
Wind  
Wind Speed 1 mph (SE)    
Max Wind Speed 7 mph    
Max Gust Speed 8 mph    
Visibility 2 miles    
Events Fog    
T = Trace of Precipitation, MM = Missing Value Source: NWS Daily Summary

Daily Weather History Graph

Daily Weather History Graph

Search for Another Location

Airport:

Trip Planner

Search our weather history database for the weather conditions in past years. The results will help you decide how hot, cold, wet, or windy it might be!

Date:

Astronomy

Dec. 08, 2012 Rise Set
Actual Time 6:45 AM PST 4:43 PM PST
Civil Twilight 6:18 AM PST 5:11 PM PST
Nautical Twilight 5:47 AM PST 5:42 PM PST
Astronomical Twilight 5:16 AM PST 6:12 PM PST
Moon 1:27 AM PST (12/8) 1:06 PM PST (12/8)
Length of Visible Light 10h 53m
Length of Day
9h 58m
Waning Crescent, 27% of the Moon is Illuminated
Dec 8
Waning Crescent
Dec 13
New
Dec 19
First Quarter
Dec 28
Full
Jan 4
Last Quarter

Hourly Weather History & Observations

Time (PST) Temp. Dew Point Humidity Pressure Visibility Wind Dir Wind Speed Gust Speed Precip Events Conditions
12:53 AM 53.1 °F 50.0 °F 89% 29.93 in 2.5 mi Calm Calm - N/A   Scattered Clouds
1:01 AM 53.6 °F 50.0 °F 88% 29.93 in 2.5 mi Calm Calm - N/A   Mostly Cloudy
1:31 AM 51.8 °F 50.0 °F 94% 29.93 in 2.5 mi Calm Calm - N/A   Overcast
1:48 AM 51.8 °F 50.0 °F 94% 29.92 in 1.8 mi Calm Calm - N/A   Overcast
1:53 AM 52.0 °F 48.9 °F 89% 29.93 in 1.8 mi Calm Calm - N/A   Overcast
2:01 AM 51.8 °F 50.0 °F 94% 29.93 in 2.0 mi Calm Calm - N/A   Overcast
2:06 AM 51.8 °F 48.2 °F 88% 29.93 in 1.5 mi Calm Calm - N/A   Overcast
2:09 AM 51.8 °F 48.2 °F 88% 29.93 in 0.2 mi SE 3.5 mph - N/A Fog Fog
2:24 AM 51.8 °F 51.8 °F 100% 29.93 in 0.2 mi Calm Calm - N/A Fog Fog
2:53 AM 52.0 °F 51.1 °F 97% 29.93 in 0.2 mi Calm Calm - N/A Fog Fog
3:53 AM 53.6 °F 51.8 °F 94% 29.94 in 0.2 mi NNW 3.5 mph - N/A Fog Fog
4:53 AM 55.0 °F 54.0 °F 96% 29.93 in 0.2 mi Calm Calm - N/A Fog Fog
5:50 AM 55.4 °F 55.4 °F 100% 29.94 in 0.5 mi Calm Calm - N/A Fog Fog
5:53 AM 55.9 °F 55.0 °F 97% 29.94 in 0.5 mi Calm Calm - N/A Fog Fog
6:46 AM 55.4 °F 55.4 °F 100% 29.95 in 1.0 mi Calm Calm - N/A   Overcast
6:53 AM 55.9 °F 55.9 °F 100% 29.95 in 0.8 mi Calm Calm - N/A   Overcast
7:53 AM 57.0 °F 55.0 °F 93% 29.97 in 0.8 mi Calm Calm - N/A   Overcast
8:53 AM 57.9 °F 55.0 °F 90% 29.99 in 1.0 mi Calm Calm - N/A   Overcast
9:00 AM 57.2 °F 55.4 °F 94% 29.99 in 1.5 mi ENE 3.5 mph - N/A   Overcast
9:17 AM 57.2 °F 55.4 °F 94% 29.99 in 2.0 mi ENE 3.5 mph - N/A   Overcast
9:53 AM 59.0 °F 55.9 °F 90% 30.00 in 1.5 mi ENE 3.5 mph - N/A   Overcast
10:00 AM 59.0 °F 55.4 °F 88% 30.00 in 1.5 mi Calm Calm - N/A   Overcast
10:53 AM 61.0 °F 55.9 °F 83% 29.99 in 1.5 mi Calm Calm - N/A   Haze
11:00 AM 60.8 °F 55.4 °F 82% 29.98 in 2.0 mi Calm Calm - N/A   Haze
11:53 AM 62.1 °F 55.0 °F 78% 29.96 in 2.0 mi Calm Calm - N/A   Haze
12:00 PM 62.6 °F 53.6 °F 72% 29.96 in 3.0 mi Calm Calm - N/A   Haze
12:53 PM 64.0 °F 55.0 °F 73% 29.94 in 3.0 mi Calm Calm - N/A   Haze
1:20 PM 64.4 °F 55.4 °F 73% 29.92 in 3.0 mi Variable 3.5 mph - N/A   Haze
1:53 PM 64.9 °F 54.0 °F 68% 29.91 in 3.0 mi Calm Calm - N/A   Haze
2:53 PM 64.9 °F 55.0 °F 70% 29.91 in 4.0 mi South 4.6 mph - N/A   Haze
3:53 PM 63.0 °F 54.0 °F 72% 29.91 in 4.0 mi South 4.6 mph - N/A   Haze
4:53 PM 60.8 °F 53.6 °F 77% 29.91 in 3.0 mi South 4.6 mph - N/A   Haze
5:53 PM 60.1 °F 54.0 °F 80% 29.92 in 4.0 mi SW 3.5 mph - N/A   Haze
6:53 PM 60.1 °F 53.1 °F 78% 29.93 in 4.0 mi Calm Calm - N/A   Haze
7:28 PM 57.2 °F 53.6 °F 88% 29.94 in 3.0 mi Calm Calm - N/A   Haze
7:53 PM 57.0 °F 53.1 °F 87% 29.94 in 3.0 mi Calm Calm - N/A   Overcast
8:38 PM 55.4 °F 51.8 °F 88% 29.95 in 2.5 mi Calm Calm - N/A   Overcast
8:49 PM 55.4 °F 51.8 °F 88% 29.95 in 3.0 mi Calm Calm - N/A   Overcast
8:53 PM 55.9 °F 52.0 °F 87% 29.95 in 3.0 mi Calm Calm - N/A   Overcast
9:31 PM 55.4 °F 51.8 °F 88% 29.96 in 3.0 mi Calm Calm - N/A   Overcast
9:53 PM 55.9 °F 53.1 °F 90% 29.96 in 3.0 mi Calm Calm - N/A   Overcast
10:53 PM 57.9 °F 55.0 °F 90% 29.97 in 3.0 mi Calm Calm - N/A   Overcast
11:00 PM 59.0 °F 55.4 °F 88% 29.97 in 2.5 mi Calm Calm - N/A   Overcast
11:14 PM 59.0 °F 55.4 °F 88% 29.97 in 3.0 mi Calm Calm - N/A   Overcast
11:53 PM 59.0 °F 55.0 °F 87% 29.97 in 3.0 mi Calm Calm - N/A   Overcast